Springfield, MO

1:51 PM CST on February 14, 2016 (GMT -0600)
Springfield-Branson Regional

Weather History for KSGF - September, 2012

Change the Weather History Date:

Saturday, September 22, 2012

  Actual Average Record
Temperature  
Mean Temperature 61 °F 66 °F  
Max Temperature 73 °F 78 °F 93 °F (1937)
Min Temperature 49 °F 55 °F 33 °F (1995)
Degree Days  
Heating Degree Days 4 3  
Month to date heating degree days 28 23  
Since 1 July heating degree days 28 25  
Cooling Degree Days 0 4  
Month to date cooling degree days 131 148  
Year to date cooling degree days 1721 1334  
Growing Degree Days 10 (Base 50)    
Moisture  
Dew Point 42 °F    
Average Humidity 56    
Maximum Humidity 80    
Minimum Humidity 31    
Precipitation  
Precipitation 0.00 in 0.15 in 2.80 in (1893)
Month to date precipitation 4.33 3.41  
Year to date precipitation 23.74 33.52  
Snow  
Snow 0.00 in - - ()
Month to date snowfall 0.0  
Since 1 July snowfall 0.0  
Since 1 September snowfall 0.0  
Snow Depth 0.00 in    
Sea Level Pressure  
Sea Level Pressure 30.10 in    
Wind  
Wind Speed 7 mph (North)    
Max Wind Speed 20 mph    
Max Gust Speed 24 mph    
Visibility 10 miles    
Events      
T = Trace of Precipitation, MM = Missing Value Source: NWS Daily Summary

Daily Weather History Graph

Daily Weather History Graph

Search for Another Location

Airport or City:

Trip Planner

Search our weather history database for the weather conditions in past years. The results will help you decide how hot, cold, wet, or windy it might be!

Date:

Astronomy

Sep. 22, 2012 Rise Set
Actual Time 7:01 AM CDT 7:09 PM CDT
Civil Twilight 6:35 AM CDT 7:35 PM CDT
Nautical Twilight 6:05 AM CDT 8:05 PM CDT
Astronomical Twilight 5:34 AM CDT 8:36 PM CDT
Moon 2:12 PM CDT (9/22) No Moon Set
Length of Visible Light 12h 59m
Length of Day
12h 07m
Waxing Crescent, 49% of the Moon is Illuminated
Sep 22
Waxing Crescent
Sep 22
First Quarter
Sep 29
Full
Oct 8
Last Quarter
Oct 15
New

Hourly Weather History & Observations

Time (CDT) Temp. Dew Point Humidity Pressure Visibility Wind Dir Wind Speed Gust Speed Precip Events Conditions
12:52 AM 59.0 °F 42.1 °F 53% 29.96 in 10.0 mi Calm Calm - N/A   Clear
1:52 AM 53.1 °F 44.1 °F 71% 29.98 in 10.0 mi Calm Calm - N/A   Clear
2:52 AM 51.1 °F 45.0 °F 80% 29.98 in 10.0 mi Calm Calm - N/A   Clear
3:52 AM 51.1 °F 44.1 °F 77% 29.98 in 10.0 mi SSE 3.5 mph - N/A   Clear
4:52 AM 50.0 °F 44.6 °F 82% 30.02 in 10.0 mi South 4.6 mph - N/A   Clear
5:52 AM 51.1 °F 44.1 °F 77% 30.01 in 10.0 mi SSE 4.6 mph - N/A   Clear
6:52 AM 50.0 °F 44.1 °F 80% 30.04 in 10.0 mi SSE 3.5 mph - N/A   Clear
7:52 AM 53.1 °F 46.0 °F 77% 30.06 in 10.0 mi Calm Calm - N/A   Clear
8:52 AM 60.1 °F 48.0 °F 64% 30.08 in 10.0 mi South 4.6 mph - N/A   Clear
9:52 AM 69.1 °F 48.9 °F 49% 30.09 in 10.0 mi WSW 5.8 mph - N/A   Clear
10:52 AM 70.0 °F 48.0 °F 46% 30.12 in 10.0 mi NNW 19.6 mph 24.2 mph N/A   Clear
11:52 AM 72.0 °F 43.0 °F 35% 30.12 in 10.0 mi NNW 16.1 mph 20.7 mph N/A   Clear
12:52 PM 73.0 °F 43.0 °F 34% 30.13 in 10.0 mi NNW 12.7 mph 20.7 mph N/A   Clear
1:52 PM 72.0 °F 44.1 °F 37% 30.13 in 10.0 mi North 11.5 mph - N/A   Clear
2:52 PM 71.6 °F 39.2 °F 31% 30.15 in 10.0 mi NNE 11.5 mph - N/A   Clear
3:52 PM 71.1 °F 41.0 °F 34% 30.14 in 10.0 mi NNW 9.2 mph - N/A   Clear
4:52 PM 70.0 °F 37.9 °F 31% 30.15 in 10.0 mi NNW 11.5 mph - N/A   Clear
5:52 PM 68.0 °F 39.0 °F 35% 30.15 in 10.0 mi NNW 12.7 mph - N/A   Clear
6:52 PM 62.1 °F 39.0 °F 43% 30.17 in 10.0 mi North 6.9 mph - N/A   Clear
7:52 PM 57.9 °F 37.9 °F 47% 30.17 in 10.0 mi North 6.9 mph - N/A   Clear
8:52 PM 55.9 °F 37.0 °F 49% 30.20 in 10.0 mi North 3.5 mph - N/A   Clear
9:52 PM 55.9 °F 33.1 °F 42% 30.20 in 10.0 mi North 3.5 mph - N/A   Clear
10:52 PM 51.1 °F 35.1 °F 54% 30.22 in 10.0 mi NNE 8.1 mph - N/A   Clear
11:52 PM 50.0 °F 33.1 °F 52% 30.22 in 10.0 mi NNE 6.9 mph - N/A   Clear